Tracking 19638 objects as of 20-May-2019
HD Live streaming from Space Station
objects crossing your sky now

SATCOM 1R

Track SATCOM 1R now!
SATCOM 1R is classified as:


NORAD ID: 13984
Int'l Code: 1983-030A
Perigee: 35,870.3 km
Apogee: 35,955.9 km
Inclination: 15.2 °
Period: 1,442.2 minutes
Semi major axis: 42284 km
RCS: 3.2 m2 (large)
Launch date: April 11, 1983
Source: United States (US)
Launch site: AIR FORCE EASTERN TEST RANGE (AFETR)
aabbcc
Your satellite tracking list
Your tracking list is empty




NASA's NSSDC Master Catalog

Two Line Element Set (TLE):
1 13984U 83030A   19139.64113049 -.00000016  00000-0  00000+0 0  9997
2 13984  15.1604 359.7876 0010125  42.1970 311.4593  0.99847480104652
Source of the keplerian elements: AFSPC